Change the Weather History Date:

Friday, July 5, 2013

  Actual Average Record
Temperature  
Mean Temperature 79 °F 75 °F  
Max Temperature 95 °F 90 °F 105 °F (1937)
Min Temperature 62 °F 61 °F 46 °F (1915)
Degree Days  
Heating Degree Days 0 0  
Month to date heating degree days 0 0  
Since 1 June heating degree days 24 34  
Cooling Degree Days 14 10  
Month to date cooling degree days 34 50  
Year to date cooling degree days 333 278  
Since 1 June cooling degree days 265 234  
Growing Degree Days 28 (Base 50)    
Moisture  
Dew Point 52 °F    
Average Humidity 44    
Maximum Humidity 65    
Minimum Humidity 22    
Precipitation  
Precipitation T in 0.08 in 1.57 in (1965)
Sea Level Pressure  
Sea Level Pressure 29.69 in    
Wind  
Wind Speed 12 mph (SE)    
Max Wind Speed 22 mph    
Max Gust Speed 28 mph    
Visibility 10 miles    
Events      
T = Trace of Precipitation, MM = Missing Value Source: NWS Daily Summary

Daily Weather History Graph

Daily Weather History Graph

Search for Another Location

Airport or City:

Trip Planner

Search our weather history database for the weather conditions in past years. The results will help you decide how hot, cold, wet, or windy it might be!

Date:

Astronomy

Jul. 05, 2013 Rise Set
Actual Time 5:22 AM MDT 8:19 PM MDT
Civil Twilight 4:49 AM MDT 8:52 PM MDT
Nautical Twilight 4:07 AM MDT 9:34 PM MDT
Astronomical Twilight 3:18 AM MDT 10:22 PM MDT
Moon 3:23 AM MDT (7/5) 6:16 PM MDT (7/5)
Length of Visible Light 16h 03m
Length of Day
14h 57m
Waning Crescent, 6% of the Moon is Illuminated
Jul 5
Waning Crescent
Jul 8
New
Jul 15
First Quarter
Jul 22
Full
Jul 29
Last Quarter

Hourly Weather History & Observations

Time (MDT) Temp. Heat Index Dew Point Humidity Pressure Visibility Wind Dir Wind Speed Gust Speed Precip Events Conditions
12:53 AM 66.0 °F - 48.9 °F 54% 29.76 in 10.0 mi South 3.5 mph - N/A   Clear
1:53 AM 64.9 °F - 48.0 °F 54% 29.76 in 10.0 mi SSE 6.9 mph - N/A   Clear
2:53 AM 62.1 °F - 50.0 °F 65% 29.75 in 10.0 mi SE 4.6 mph - N/A   Clear
3:53 AM 63.0 °F - 48.9 °F 60% 29.75 in 10.0 mi SE 6.9 mph - N/A   Clear
4:53 AM 64.0 °F - 48.0 °F 56% 29.74 in 10.0 mi SE 6.9 mph - N/A   Clear
5:53 AM 64.9 °F - 48.9 °F 56% 29.74 in 10.0 mi SSE 8.1 mph - N/A   Clear
6:53 AM 66.9 °F - 51.1 °F 57% 29.74 in 10.0 mi SSE 8.1 mph - N/A   Clear
7:53 AM 72.0 °F - 52.0 °F 49% 29.75 in 10.0 mi South 5.8 mph - N/A   Clear
8:53 AM 77.0 °F - 53.1 °F 43% 29.75 in 10.0 mi South 6.9 mph - N/A   Clear
9:53 AM 81.0 °F 80.7 °F 55.0 °F 41% 29.74 in 10.0 mi SE 9.2 mph - N/A   Clear
10:53 AM 86.0 °F 84.5 °F 55.0 °F 35% 29.71 in 10.0 mi SE 11.5 mph - N/A   Clear
11:53 AM 90.0 °F 87.7 °F 54.0 °F 29% 29.69 in 10.0 mi SE 15.0 mph 19.6 mph N/A   Clear
12:53 PM 91.0 °F 88.5 °F 53.1 °F 27% 29.68 in 10.0 mi SE 15.0 mph 21.9 mph N/A   Clear
1:53 PM 93.0 °F - 51.1 °F 24% 29.67 in 10.0 mi SSE 17.3 mph 24.2 mph N/A   Clear
2:53 PM 93.0 °F - 48.9 °F 22% 29.66 in 10.0 mi South 10.4 mph - N/A   Clear
3:53 PM 90.0 °F - 52.0 °F 27% 29.65 in 10.0 mi SE 10.4 mph - N/A   Scattered Clouds
4:53 PM 89.1 °F - 50.0 °F 26% 29.63 in 10.0 mi SE 16.1 mph 23.0 mph N/A   Partly Cloudy
5:53 PM 90.0 °F 87.7 °F 54.0 °F 29% 29.62 in 10.0 mi ESE 15.0 mph - 0.00 in   Clear
6:53 PM 88.0 °F 85.7 °F 53.1 °F 30% 29.64 in 10.0 mi ESE 17.3 mph 23.0 mph N/A   Clear
7:53 PM 82.9 °F 81.9 °F 54.0 °F 37% 29.64 in 10.0 mi SE 16.1 mph 24.2 mph N/A   Clear
8:53 PM 79.0 °F - 54.0 °F 42% 29.65 in 10.0 mi ESE 13.8 mph - N/A   Partly Cloudy
9:53 PM 78.1 °F - 55.0 °F 45% 29.65 in 10.0 mi SE 15.0 mph - N/A   Clear
10:53 PM 78.1 °F - 54.0 °F 43% 29.65 in 10.0 mi SE 17.3 mph 24.2 mph N/A   Clear
11:53 PM 75.9 °F - 53.1 °F 45% 29.65 in 10.0 mi SE 17.3 mph 25.3 mph N/A   Clear